{"data":{"norad_id":63039,"intl_designator":"2025-034L","name":"STARLINK-32811","alt_names":[],"object_type":"PAYLOAD","status":"ACTIVE","operator":null,"country":"US","launch_date":"2025-02-18","launch_site_code":"AFETR","launch_vehicle":null,"mission":null,"orbit_class":"UNKNOWN","rcs_meters":null,"size_class":null,"mass_kg":null,"dimensions":null,"purposes":["comms"],"wikipedia_slug":null,"has_3d_model":false,"image_url":null,"decayed_at":null,"tle_current":{"epoch":"2026-05-25T04:00:03.998880Z","epoch_age_seconds":60986,"freshness":"FRESH","line1":"1 63039U 25034L   26145.16671295  .00069123  00000+0  23261-2 0  9996","line2":"2 63039  53.1580 263.0297 0001118  97.6268 272.3384 15.30175120  5866","mean_motion":15.3017512,"eccentricity":0.0001118,"inclination_deg":53.158,"raan_deg":263.0297,"arg_perigee_deg":97.6268,"mean_anomaly_deg":272.3384,"bstar":0.0023261,"rev_number":586,"period_min":94.106875819547,"perigee_km":474.52314455446,"apogee_km":476.05557068802,"semimajor_km":6853.4263576212,"source":"CELESTRAK","updated_at":"2026-05-25T13:38:19.867297Z"}}}